#timestamp,LO_Frequency,Hit,StdDev 
1607852655.3,286046992.3,P
1607852675.1,286046991.3,P
1607852695.8,286046991.3,P
1607852715.7,286046990.6,Y
1607852735.5,286047001.1,P
1607852755.4,286047002.8,N
1607852775.2,286047001.3,N
1607852795.0,286047002.5,N
1607852795.9,286047002.5,N
1607852815.8,286047001.7,N
1607852835.6,286047002.3,N
1607852855.4,286047004.0,N
1607852875.3,286047003.4,N
1607852895.1,286047001.8,N
1607852915.9,286047001.9,N
1607852935.7,286047002.1,N
1607852955.5,286046998.7,N
1607852975.4,286046999.2,N
1607852995.2,286047000.6,N
1607853015.0,286047002.4,N
1607853015.9,286047002.4,N
1607853065.8,286047001.5,E
1607853075.7,286047002.5,N
1607853095.6,286047001.5,P
1607853115.4,286047004.2,P
1607853135.2,286047003.3,N
1607853155.1,286047003.3,Y
1607853156.0,286047003.3,P
1607853175.8,286047001.2,P
1607853195.7,286047003.9,P
1607853215.5,286047007.6,Y
1607853235.3,286047001.8,P
1607853255.2,286047002.3,P
1607853275.0,286046999.5,N
1607853275.9,286046999.5,N
1607853295.8,286047000.6,N
1607853315.6,286046998.2,N
1607853335.4,286047001.9,N
1607853355.3,286047001.2,N
1607853375.1,286046996.3,N
1607853395.8,286046993.8,Y
1607853415.7,286046991.9,P
1607853435.5,286046990.5,N
1607853455.4,286046989.2,N
1607853475.2,286046989.4,N
1607853495.0,286046987.6,N
1607853495.9,286046987.6,N
1607853515.8,286046986.2,Y
1607853535.6,286046993.5,P
1607853555.5,286046993.6,P
1607853575.3,286046992.3,P
1607853595.1,286046992.7,Y
